Location: St. Louis
(38.6270°N, 90.1994°W)
Time: 14:03:35
(UTC-06:00)

Vanguard 1 - Pass Details

Date: 08 December 2021
Orbit: 652 x 3830 km, 34.2° (Epoch: 19 January)

Event Time Altitude Azimuth Distance (km) Brightness Sun altitude
Rises 04:58:48 0° 286° (WNW) 7,971 - -24.2°
Reaches altitude 10° 05:04:53 10° 281° (W) 6,841 - -23.0°
Exits shadow 05:12:46 25° 269° (W) 5,368 13.2 -21.5°
Maximum altitude 05:24:06 42° 220° (SW) 3,763 12.7 -19.4°
Drops below altitude 10° 05:36:33 10° 155° (SSE) 4,511 14.0 -17.0°
Sets 05:39:39 0° 148° (SSE) 5,141 14.5 -16.4°
